OneWeb SL0201

operational
NORAD ID: 48241 Int'l Des: 2021-031 Owner: ONEWEBN Country: UK Constellation: oneweb
LEOCIRCULARPOLARONEWEB_TYPE

OneWeb SL0201について

説明を読み込み中...

リアルタイム位置

3D地球を読み込み中...

次回通過

高度履歴

Altitude vs Time

uPlot chart will show altitude changes over time

軌道要素

1 48241U 21031AH 26061.10042933 -.00000154 00000-0 -45021-3 0 9990
2 48241 87.8991 311.0847 0001907 73.3799 286.7540 13.14502163234313
Epoch: Mar 2, 2026 • Age: 31 hours

現在のステータス

高度 1235.9 km
速度 7.24 km/s
衛星直下点 -85.49°S, 110.12°W
打ち上げ日 Apr 25, 2021
運用期間 4.8 years
タイプ internet

技術仕様

分類 Payload
質量 148.00 kg
乾燥質量 140.00 kg
総質量 148.00 kg
長さ 1.30 m
直径 1.00 m
スパン 5.00 m
形状 Trapezoid+2 pan
製造者 ONEWUS
バスタイプ ARROW
フェーズステータス In Orbit
所有者/国 ONEWEBN/UK

大規模コンステレーション

Loading constellations...